This demonstration page uses our WeatherBlox Daily Observations layout. Learn more.

Left ArrowRight Arrow

38.83388, -104.82136

Hourly Observations for January 18, 2022

Temp ( °F °C ) Dew Point ( °F °C ) Humidity (%) Winds ( mph kmh ) Pressure ( in mb ) Visibility ( mi km ) Precip ( " mm )
12:54 am 00:54 Mostly Cloudy 32 0 12 -11.1 43 43 N 3 6 29.82 1010 10 16 0.00 0.00
1:54 am 01:54 Mostly Cloudy 31 -0.6 13 -10.6 47 47 NNE 8 13 29.81 1010 10 16 0.00 0.00
2:54 am 02:54 Mostly Cloudy 32 0 13 -10.6 45 45 N 7 11 29.80 1009 10 16 0.00 0.00
3:54 am 03:54 Mostly Cloudy 34 1.1 15 -9.4 46 46 NNE 9 15 29.79 1009 10 16 0.00 0.00
4:54 am 04:54 Mostly Cloudy 33 0.6 15 -9.4 47 47 NNE 8 13 29.83 1010 10 16 0.00 0.00
5:54 am 05:54 Mostly Cloudy 34 1.1 14 -10 44 44 NNE 8 13 29.83 1010 10 16 0.00 0.00
6:54 am 06:54 Mostly Cloudy 34 1.1 14 -10 44 44 N 9 15 29.83 1010 10 16 0.00 0.00
7:54 am 07:54 Mostly Cloudy 43 6.1 12 -11.1 28 28 NNW 3 6 29.81 1009 10 16 0.00 0.00
8:54 am 08:54 Mostly Cloudy 46 7.8 14 -10 27 27 NNW 5 7 29.82 1010 10 16 0.00 0.00
9:54 am 09:54 Mostly Cloudy 55 12.8 13 -10.6 19 19 N 6 9 29.79 1009 10 16 0.00 0.00
10:54 am 10:54 Mostly Cloudy 58 14.4 7 -13.9 13 13 WNW 6 9 29.77 1008 10 16 0.00 0.00
11:54 am 11:54 Mostly Cloudy 60 15.6 4 -15.6 10 10 Calm 29.76 1008 10 16 0.00 0.00
12:54 pm 12:54 Mostly Cloudy 59 15 1 -17.2 9 9 NE 9 15 29.76 1008 10 16 0.00 0.00
1:54 pm 13:54 Mostly Cloudy 58 14.4 -1 -18.3 9 9 NE 7 11 29.77 1008 10 16 0.00 0.00
2:54 pm 14:54 Mostly Cloudy 57 13.9 0 -17.8 10 10 NE 10 17 29.76 1008 10 16 0.00 0.00
3:54 pm 15:54 Mostly Cloudy 55 12.8 -2 -18.9 9 9 ENE 8 13 29.78 1008 10 16 0.00 0.00
4:54 pm 16:54 Mostly Cloudy 51 10.6 1 -17.2 13 13 ENE 7 11 29.82 1010 10 16 0.00 0.00
5:54 pm 17:54 Partly Cloudy 38 3.3 5 -15 25 25 NNE 13 20 29.90 1012 10 16 0.00 0.00
6:54 pm 18:54 Partly Cloudy 41 5 6 -14.4 23 23 NE 22 35 29.90 1013 10 16 0.00 0.00
7:54 pm 19:54 Mostly Cloudy 39 3.9 10 -12.2 30 30 N 15 24 29.90 1013 10 16 0.00 0.00
8:54 pm 20:54 Mostly Cloudy 38 3.3 10 -12.2 31 31 NW 7 11 29.92 1013 10 16 0.00 0.00
9:54 pm 21:54 Mostly Cloudy 38 3.3 14 -10 37 37 NNW 9 15 29.90 1013 10 16 0.00 0.00
10:54 pm 22:54 Mostly Cloudy 38 3.3 16 -8.9 41 41 NNW 14 22 29.91 1013 10 16 0.00 0.00
11:54 pm 23:54 Mostly Cloudy 36 2.2 16 -8.9 44 44 VRB 5 7 29.95 1014 10 16 0.00 0.00

Powered by AerisWeather